Year,Month,Day,Hour,Minute,Value (Times are PST for temperature in C)
2016,08,13,00,00,21.20
2016,08,13,00,01,21.20
2016,08,13,00,02,21.20
2016,08,13,00,03,21.10
2016,08,13,00,04,21.10
2016,08,13,00,05,21.10
2016,08,13,00,06,21.10
2016,08,13,00,07,21.10
2016,08,13,00,08,21.10
2016,08,13,00,09,21.10
2016,08,13,00,10,21.00
2016,08,13,00,11,21.00
2016,08,13,00,12,21.00
2016,08,13,00,13,21.00
2016,08,13,00,14,21.00
2016,08,13,00,15,20.90
2016,08,13,00,16,20.90
2016,08,13,00,17,20.90
2016,08,13,00,18,20.90
2016,08,13,00,19,20.90
2016,08,13,00,20,20.90
2016,08,13,00,21,20.90
2016,08,13,00,22,20.90
2016,08,13,00,23,20.80
2016,08,13,00,24,20.80
2016,08,13,00,25,20.80
2016,08,13,00,26,20.80
2016,08,13,00,27,20.80
2016,08,13,00,28,20.80
2016,08,13,00,29,20.80
2016,08,13,00,30,20.80
2016,08,13,00,31,20.70
2016,08,13,00,32,20.70
2016,08,13,00,33,20.70
2016,08,13,00,34,20.70
2016,08,13,00,35,20.70
2016,08,13,00,36,20.70
2016,08,13,00,37,20.70
2016,08,13,00,38,20.60
2016,08,13,00,39,20.60
2016,08,13,00,40,20.60
2016,08,13,00,41,20.50
2016,08,13,00,42,20.50
2016,08,13,00,43,20.50
2016,08,13,00,44,20.50
2016,08,13,00,45,20.40
2016,08,13,00,46,20.40
2016,08,13,00,47,20.40
2016,08,13,00,48,20.40
2016,08,13,00,49,20.40
2016,08,13,00,50,20.40
2016,08,13,00,51,20.30
2016,08,13,00,52,20.30
2016,08,13,00,53,20.30
2016,08,13,00,54,20.30
2016,08,13,00,55,20.30
2016,08,13,00,56,20.30
2016,08,13,00,57,20.30
2016,08,13,00,58,20.30
2016,08,13,00,59,20.30
2016,08,13,01,00,20.30
2016,08,13,01,01,20.30
2016,08,13,01,02,20.30
2016,08,13,01,03,20.30
2016,08,13,01,04,20.30
2016,08,13,01,05,20.30
2016,08,13,01,06,20.20
2016,08,13,01,07,20.20
2016,08,13,01,08,20.20
2016,08,13,01,09,20.20
2016,08,13,01,10,20.20
2016,08,13,01,11,20.30
2016,08,13,01,12,20.30
2016,08,13,01,13,20.30
2016,08,13,01,14,20.30
2016,08,13,01,15,20.30
2016,08,13,01,16,20.30
2016,08,13,01,17,20.30
2016,08,13,01,18,20.30
2016,08,13,01,19,20.30
2016,08,13,01,20,20.30
2016,08,13,01,21,20.30
2016,08,13,01,22,20.30
2016,08,13,01,23,20.30
2016,08,13,01,24,20.30
2016,08,13,01,25,20.20
2016,08,13,01,26,20.20
2016,08,13,01,27,20.20
2016,08,13,01,28,20.20
2016,08,13,01,29,20.20
2016,08,13,01,30,20.20
2016,08,13,01,31,20.20
2016,08,13,01,32,20.10
2016,08,13,01,33,20.10
2016,08,13,01,34,20.10
2016,08,13,01,35,20.10
2016,08,13,01,36,20.10
2016,08,13,01,37,20.10
2016,08,13,01,38,20.10
2016,08,13,01,39,20.10
2016,08,13,01,40,20.10
2016,08,13,01,41,20.10
2016,08,13,01,42,20.00
2016,08,13,01,43,20.00
2016,08,13,01,44,20.00
2016,08,13,01,45,20.00
2016,08,13,01,46,20.00
2016,08,13,01,47,20.00
2016,08,13,01,48,20.00
2016,08,13,01,49,20.00
2016,08,13,01,50,20.00
2016,08,13,01,51,19.90
2016,08,13,01,52,19.90
2016,08,13,01,53,19.90
2016,08,13,01,54,19.90
2016,08,13,01,55,19.90
2016,08,13,01,56,19.90
2016,08,13,01,57,19.90
2016,08,13,01,58,19.90
2016,08,13,01,59,19.90
2016,08,13,02,00,19.90
2016,08,13,02,01,19.80
2016,08,13,02,02,19.80
2016,08,13,02,03,19.80
2016,08,13,02,04,19.80
2016,08,13,02,05,19.80
2016,08,13,02,06,19.80
2016,08,13,02,07,19.80
2016,08,13,02,08,19.80
2016,08,13,02,09,19.80
2016,08,13,02,10,19.80
2016,08,13,02,11,19.80
2016,08,13,02,12,19.80
2016,08,13,02,13,19.80
2016,08,13,02,14,19.80
2016,08,13,02,15,19.80
2016,08,13,02,16,19.80
2016,08,13,02,17,19.70
2016,08,13,02,18,19.70
2016,08,13,02,19,19.70
2016,08,13,02,20,19.70
2016,08,13,02,21,19.70
2016,08,13,02,22,19.70
2016,08,13,02,23,19.70
2016,08,13,02,24,19.70
2016,08,13,02,25,19.70
2016,08,13,02,26,19.70
2016,08,13,02,27,19.70
2016,08,13,02,28,19.70
2016,08,13,02,29,19.70
2016,08,13,02,30,19.70
2016,08,13,02,31,19.70
2016,08,13,02,32,19.70
2016,08,13,02,33,19.70
2016,08,13,02,34,19.70
2016,08,13,02,35,19.70
2016,08,13,02,36,19.70
2016,08,13,02,37,19.70
2016,08,13,02,38,19.60
2016,08,13,02,39,19.60
2016,08,13,02,40,19.60
2016,08,13,02,41,19.60
2016,08,13,02,42,19.60
2016,08,13,02,43,19.60
2016,08,13,02,44,19.60
2016,08,13,02,45,19.60
2016,08,13,02,46,19.60
2016,08,13,02,47,19.60
2016,08,13,02,48,19.50
2016,08,13,02,49,19.50
2016,08,13,02,50,19.50
2016,08,13,02,51,19.50
2016,08,13,02,52,19.50
2016,08,13,02,53,19.50
2016,08,13,02,54,19.50
2016,08,13,02,55,19.50
2016,08,13,02,56,19.40
2016,08,13,02,57,19.50
2016,08,13,02,58,19.40
2016,08,13,02,59,19.40
2016,08,13,03,00,19.40
2016,08,13,03,01,19.40
2016,08,13,03,02,19.40
2016,08,13,03,03,19.40
2016,08,13,03,04,19.40
2016,08,13,03,05,19.40
2016,08,13,03,06,19.40
2016,08,13,03,07,19.40
2016,08,13,03,08,19.40
2016,08,13,03,09,19.40
2016,08,13,03,10,19.40
2016,08,13,03,11,19.40
2016,08,13,03,12,19.40
2016,08,13,03,13,19.40
2016,08,13,03,14,19.30
2016,08,13,03,15,19.30
2016,08,13,03,16,19.30
2016,08,13,03,17,19.30
2016,08,13,03,18,19.30
2016,08,13,03,19,19.30
2016,08,13,03,20,19.30
2016,08,13,03,21,19.30
2016,08,13,03,22,19.30
2016,08,13,03,23,19.30
2016,08,13,03,24,19.30
2016,08,13,03,25,19.30
2016,08,13,03,26,19.30
2016,08,13,03,27,19.30
2016,08,13,03,28,19.30
2016,08,13,03,29,19.30
2016,08,13,03,30,19.30
2016,08,13,03,31,19.20
2016,08,13,03,32,19.20
2016,08,13,03,33,19.20
2016,08,13,03,34,19.20
2016,08,13,03,35,19.20
2016,08,13,03,36,19.20
2016,08,13,03,37,19.20
2016,08,13,03,38,19.20
2016,08,13,03,39,19.20
2016,08,13,03,40,19.20
2016,08,13,03,41,19.20
2016,08,13,03,42,19.20
2016,08,13,03,43,19.20
2016,08,13,03,44,19.20
2016,08,13,03,45,19.20
2016,08,13,03,46,19.20
2016,08,13,03,47,19.20
2016,08,13,03,48,19.20
2016,08,13,03,49,19.20
2016,08,13,03,50,19.20
2016,08,13,03,51,19.20
2016,08,13,03,52,19.20
2016,08,13,03,53,19.10
2016,08,13,03,54,19.10
2016,08,13,03,55,19.10
2016,08,13,03,56,19.10
2016,08,13,03,57,19.10
2016,08,13,03,58,19.10
2016,08,13,03,59,19.10
2016,08,13,04,00,19.10
2016,08,13,04,01,19.10
2016,08,13,04,02,19.20
2016,08,13,04,03,19.20
2016,08,13,04,04,19.20
2016,08,13,04,05,19.20
2016,08,13,04,06,19.20
2016,08,13,04,07,19.20
2016,08,13,04,08,19.20
2016,08,13,04,09,19.20
2016,08,13,04,10,19.20
2016,08,13,04,11,19.20
2016,08,13,04,12,19.20
2016,08,13,04,13,19.20
2016,08,13,04,14,19.20
2016,08,13,04,15,19.10
2016,08,13,04,16,19.10
2016,08,13,04,17,19.10
2016,08,13,04,18,19.10
2016,08,13,04,19,19.10
2016,08,13,04,20,19.10
2016,08,13,04,21,19.10
2016,08,13,04,22,19.10
2016,08,13,04,23,19.10
2016,08,13,04,24,19.10
2016,08,13,04,25,19.10
2016,08,13,04,26,19.10
2016,08,13,04,27,19.10
2016,08,13,04,28,19.00
2016,08,13,04,29,19.00
2016,08,13,04,30,19.00
2016,08,13,04,31,19.00
2016,08,13,04,32,19.00
2016,08,13,04,33,19.00
2016,08,13,04,34,18.90
2016,08,13,04,35,18.90
2016,08,13,04,36,18.90
2016,08,13,04,37,18.90
2016,08,13,04,38,18.90
2016,08,13,04,39,18.90
2016,08,13,04,40,18.80
2016,08,13,04,41,18.80
2016,08,13,04,42,18.80
2016,08,13,04,43,18.80
2016,08,13,04,44,18.70
2016,08,13,04,45,18.70
2016,08,13,04,46,18.70
2016,08,13,04,47,18.70
2016,08,13,04,48,18.60
2016,08,13,04,49,18.60
2016,08,13,04,50,18.60
2016,08,13,04,51,18.60
2016,08,13,04,52,18.50
2016,08,13,04,53,18.50
2016,08,13,04,54,18.50
2016,08,13,04,55,18.40
2016,08,13,04,56,18.40
2016,08,13,04,57,18.40
2016,08,13,04,58,18.40
2016,08,13,04,59,18.40
2016,08,13,05,00,18.40
2016,08,13,05,01,18.30
2016,08,13,05,02,18.30
2016,08,13,05,03,18.30
2016,08,13,05,04,18.30
2016,08,13,05,05,18.30
2016,08,13,05,06,18.20
2016,08,13,05,07,18.20
2016,08,13,05,08,18.20
2016,08,13,05,09,18.20
2016,08,13,05,10,18.20
2016,08,13,05,11,18.20
2016,08,13,05,12,18.20
2016,08,13,05,13,18.10
2016,08,13,05,14,18.10
2016,08,13,05,15,18.10
2016,08,13,05,16,18.10
2016,08,13,05,17,18.10
2016,08,13,05,18,18.10
2016,08,13,05,19,18.10
2016,08,13,05,20,18.00
2016,08,13,05,21,18.00
2016,08,13,05,22,18.00
2016,08,13,05,23,18.00
2016,08,13,05,24,17.90
2016,08,13,05,25,17.90
2016,08,13,05,26,17.90
2016,08,13,05,27,17.90
2016,08,13,05,28,17.90
2016,08,13,05,29,17.80
2016,08,13,05,30,17.80
2016,08,13,05,31,17.80
2016,08,13,05,32,17.80
2016,08,13,05,33,17.80
2016,08,13,05,34,17.80
2016,08,13,05,35,17.70
2016,08,13,05,36,17.70
2016,08,13,05,37,17.70
2016,08,13,05,38,17.70
2016,08,13,05,39,17.70
2016,08,13,05,40,17.70
2016,08,13,05,41,17.70
2016,08,13,05,42,17.70
2016,08,13,05,43,17.70
2016,08,13,05,44,17.70
2016,08,13,05,45,17.70
2016,08,13,05,46,17.60
2016,08,13,05,47,17.60
2016,08,13,05,48,17.60
2016,08,13,05,49,17.60
2016,08,13,05,50,17.60
2016,08,13,05,51,17.60
2016,08,13,05,52,17.60
2016,08,13,05,53,17.60
2016,08,13,05,54,17.60
2016,08,13,05,55,17.60
2016,08,13,05,56,17.50
2016,08,13,05,57,17.50
2016,08,13,05,58,17.50
2016,08,13,05,59,17.50
2016,08,13,06,00,17.50
2016,08,13,06,01,17.50
2016,08,13,06,02,17.40
2016,08,13,06,03,17.40
2016,08,13,06,04,17.40
2016,08,13,06,05,17.40
2016,08,13,06,06,17.40
2016,08,13,06,07,17.40
2016,08,13,06,08,17.40
2016,08,13,06,09,17.40
2016,08,13,06,10,17.40
2016,08,13,06,11,17.40
2016,08,13,06,12,17.40
2016,08,13,06,13,17.40
2016,08,13,06,14,17.40
2016,08,13,06,15,17.30
2016,08,13,06,16,17.30
2016,08,13,06,17,17.30
2016,08,13,06,18,17.30
2016,08,13,06,19,17.30
2016,08,13,06,20,17.30
2016,08,13,06,21,17.30
2016,08,13,06,22,17.30
2016,08,13,06,23,17.30
2016,08,13,06,24,17.30
2016,08,13,06,25,17.30
2016,08,13,06,26,17.30
2016,08,13,06,27,17.30
2016,08,13,06,28,17.30
2016,08,13,06,29,17.20
2016,08,13,06,30,17.20
2016,08,13,06,31,17.20
2016,08,13,06,32,17.20
2016,08,13,06,33,17.20
2016,08,13,06,34,17.20
2016,08,13,06,35,17.20
2016,08,13,06,36,17.20
2016,08,13,06,37,17.20
2016,08,13,06,38,17.20
2016,08,13,06,39,17.20
2016,08,13,06,40,17.20
2016,08,13,06,41,17.20
2016,08,13,06,42,17.20
2016,08,13,06,43,17.20
2016,08,13,06,44,17.20
2016,08,13,06,45,17.20
2016,08,13,06,46,17.20
2016,08,13,06,47,17.20
2016,08,13,06,48,17.20
2016,08,13,06,49,17.20
2016,08,13,06,50,17.20
2016,08,13,06,51,17.20
2016,08,13,06,52,17.30
2016,08,13,06,53,17.30
2016,08,13,06,54,17.30
2016,08,13,06,55,17.30
2016,08,13,06,56,17.30
2016,08,13,06,57,17.30
2016,08,13,06,58,17.30
2016,08,13,06,59,17.40
2016,08,13,07,00,17.40
2016,08,13,07,01,17.40
2016,08,13,07,02,17.40
2016,08,13,07,03,17.40
2016,08,13,07,04,17.50
2016,08,13,07,05,17.50
2016,08,13,07,06,17.60
2016,08,13,07,07,17.60
2016,08,13,07,08,17.60
2016,08,13,07,09,17.60
2016,08,13,07,10,17.60
2016,08,13,07,11,17.70
2016,08,13,07,12,17.70
2016,08,13,07,13,17.70
2016,08,13,07,14,17.70
2016,08,13,07,15,17.70
2016,08,13,07,16,17.80
2016,08,13,07,17,17.80
2016,08,13,07,18,17.80
2016,08,13,07,19,17.80
2016,08,13,07,20,17.80
2016,08,13,07,21,17.90
2016,08,13,07,22,17.90
2016,08,13,07,23,17.90
2016,08,13,07,24,17.90
2016,08,13,07,25,18.00
2016,08,13,07,26,18.00
2016,08,13,07,27,18.10
2016,08,13,07,28,18.10
2016,08,13,07,29,18.10
2016,08,13,07,30,18.20
2016,08,13,07,31,18.20
2016,08,13,07,32,18.20
2016,08,13,07,33,18.30
2016,08,13,07,34,18.30
2016,08,13,07,35,18.40
2016,08,13,07,36,18.40
2016,08,13,07,37,18.50
2016,08,13,07,38,18.60
2016,08,13,07,39,18.60
2016,08,13,07,40,18.70
2016,08,13,07,41,18.70
2016,08,13,07,42,18.80
2016,08,13,07,43,18.90
2016,08,13,07,44,18.90
2016,08,13,07,45,19.00
2016,08,13,07,46,19.10
2016,08,13,07,47,19.20
2016,08,13,07,48,19.30
2016,08,13,07,49,19.40
2016,08,13,07,50,19.40
2016,08,13,07,51,19.50
2016,08,13,07,52,19.60
2016,08,13,07,53,19.70
2016,08,13,07,54,19.70
2016,08,13,07,55,19.80
2016,08,13,07,56,19.90
2016,08,13,07,57,20.00
2016,08,13,07,58,20.20
2016,08,13,07,59,20.30
2016,08,13,08,00,20.40
2016,08,13,08,01,20.50
2016,08,13,08,02,20.60
2016,08,13,08,03,20.70
2016,08,13,08,04,20.70
2016,08,13,08,05,20.70
2016,08,13,08,06,20.80
2016,08,13,08,07,20.80
2016,08,13,08,08,20.80
2016,08,13,08,09,20.80
2016,08,13,08,10,20.80
2016,08,13,08,11,20.90
2016,08,13,08,12,20.90
2016,08,13,08,13,20.90
2016,08,13,08,14,20.90
2016,08,13,08,15,21.00
2016,08,13,08,16,21.00
2016,08,13,08,17,21.10
2016,08,13,08,18,21.20
2016,08,13,08,19,21.30
2016,08,13,08,20,21.30
2016,08,13,08,21,21.40
2016,08,13,08,22,21.40
2016,08,13,08,23,21.50
2016,08,13,08,24,21.60
2016,08,13,08,25,21.60
2016,08,13,08,26,21.70
2016,08,13,08,27,21.70
2016,08,13,08,28,21.70
2016,08,13,08,29,21.70
2016,08,13,08,30,21.70
2016,08,13,08,31,21.70
2016,08,13,08,32,21.70
2016,08,13,08,33,21.70
2016,08,13,08,34,21.70
2016,08,13,08,35,21.70
2016,08,13,08,36,21.60
2016,08,13,08,37,21.60
2016,08,13,08,38,21.60
2016,08,13,08,39,21.70
2016,08,13,08,40,21.70
2016,08,13,08,41,21.60
2016,08,13,08,42,21.60
2016,08,13,08,43,21.60
2016,08,13,08,44,21.60
2016,08,13,08,45,21.60
2016,08,13,08,46,21.70
2016,08,13,08,47,21.70
2016,08,13,08,48,21.70
2016,08,13,08,49,21.80
2016,08,13,08,50,21.80
2016,08,13,08,51,21.80
2016,08,13,08,52,21.90
2016,08,13,08,53,21.90
2016,08,13,08,54,21.90
2016,08,13,08,55,21.90
2016,08,13,08,56,21.90
2016,08,13,08,57,22.00
2016,08,13,08,58,22.00
2016,08,13,08,59,22.00
2016,08,13,09,00,22.00
2016,08,13,09,01,21.90
2016,08,13,09,02,22.00
2016,08,13,09,03,22.00
2016,08,13,09,04,22.00
2016,08,13,09,05,22.10
2016,08,13,09,06,22.10
2016,08,13,09,07,22.10
2016,08,13,09,08,22.00
2016,08,13,09,09,22.00
2016,08,13,09,10,22.00
2016,08,13,09,11,21.90
2016,08,13,09,12,22.00
2016,08,13,09,13,22.00
2016,08,13,09,14,22.00
2016,08,13,09,15,22.00
2016,08,13,09,16,22.00
2016,08,13,09,17,22.00
2016,08,13,09,18,22.00
2016,08,13,09,19,22.10
2016,08,13,09,20,22.10
2016,08,13,09,21,22.20
2016,08,13,09,22,22.30
2016,08,13,09,23,22.40
2016,08,13,09,24,22.50
2016,08,13,09,25,22.60
2016,08,13,09,26,22.60
2016,08,13,09,27,22.70
2016,08,13,09,28,22.70
2016,08,13,09,29,22.70
2016,08,13,09,30,22.80
2016,08,13,09,31,22.80
2016,08,13,09,32,22.70
2016,08,13,09,33,22.70
2016,08,13,09,34,22.60
2016,08,13,09,35,22.60
2016,08,13,09,36,22.50
2016,08,13,09,37,22.60
2016,08,13,09,38,22.60
2016,08,13,09,39,22.60
2016,08,13,09,40,22.60
2016,08,13,09,41,22.70
2016,08,13,09,42,22.80
2016,08,13,09,43,22.80
2016,08,13,09,44,22.90
2016,08,13,09,45,23.00
2016,08,13,09,46,23.00
2016,08,13,09,47,23.10
2016,08,13,09,48,23.10
2016,08,13,09,49,23.10
2016,08,13,09,50,23.10
2016,08,13,09,51,23.00
2016,08,13,09,52,22.90
2016,08,13,09,53,22.90
2016,08,13,09,54,22.80
2016,08,13,09,55,22.80
2016,08,13,09,56,22.70
2016,08,13,09,57,22.70
2016,08,13,09,58,22.60
2016,08,13,09,59,22.60
2016,08,13,10,00,22.60
2016,08,13,10,01,22.70
2016,08,13,10,02,22.70
2016,08,13,10,03,22.80
2016,08,13,10,04,22.80
2016,08,13,10,05,22.80
2016,08,13,10,06,22.90
2016,08,13,10,07,22.90
2016,08,13,10,08,22.90
2016,08,13,10,09,22.90
2016,08,13,10,10,22.90
2016,08,13,10,11,23.00
2016,08,13,10,12,23.00
2016,08,13,10,13,23.10
2016,08,13,10,14,23.10
2016,08,13,10,15,23.10
2016,08,13,10,16,23.10
2016,08,13,10,17,23.00
2016,08,13,10,18,23.00
2016,08,13,10,19,23.10
2016,08,13,10,20,23.10
2016,08,13,10,21,23.20
2016,08,13,10,22,23.20
2016,08,13,10,23,23.10
2016,08,13,10,24,23.00
2016,08,13,10,25,23.00
2016,08,13,10,26,22.90
2016,08,13,10,27,22.90
2016,08,13,10,28,22.90
2016,08,13,10,29,23.00
2016,08,13,10,30,23.10
2016,08,13,10,31,23.20
2016,08,13,10,32,23.20
2016,08,13,10,33,23.30
2016,08,13,10,34,23.40
2016,08,13,10,35,23.40
2016,08,13,10,36,23.40
2016,08,13,10,37,23.40
2016,08,13,10,38,23.20
2016,08,13,10,39,23.20
2016,08,13,10,40,23.20
2016,08,13,10,41,23.20
2016,08,13,10,42,23.20
2016,08,13,10,43,23.30
2016,08,13,10,44,23.30
2016,08,13,10,45,23.30
2016,08,13,10,46,23.30
2016,08,13,10,47,23.40
2016,08,13,10,48,23.40
2016,08,13,10,49,23.40
2016,08,13,10,50,23.30
2016,08,13,10,51,23.30
2016,08,13,10,52,23.30
2016,08,13,10,53,23.20
2016,08,13,10,54,23.20
2016,08,13,10,55,23.10
2016,08,13,10,56,23.10
2016,08,13,10,57,23.10
2016,08,13,10,58,23.10
2016,08,13,10,59,23.10
2016,08,13,11,00,23.20
2016,08,13,11,01,23.20
2016,08,13,11,02,23.20
2016,08,13,11,03,23.20
2016,08,13,11,04,23.20
2016,08,13,11,05,23.10
2016,08,13,11,06,23.00
2016,08,13,11,07,22.90
2016,08,13,11,08,22.80
2016,08,13,11,09,22.80
2016,08,13,11,10,22.80
2016,08,13,11,11,22.70
2016,08,13,11,12,22.70
2016,08,13,11,13,22.70
2016,08,13,11,14,22.60
2016,08,13,11,15,22.70
2016,08,13,11,16,22.70
2016,08,13,11,17,22.70
2016,08,13,11,18,22.70
2016,08,13,11,19,22.70
2016,08,13,11,20,22.70
2016,08,13,11,21,22.60
2016,08,13,11,22,22.60
2016,08,13,11,23,22.60
2016,08,13,11,24,22.70
2016,08,13,11,25,22.70
2016,08,13,11,26,22.60
2016,08,13,11,27,22.60
2016,08,13,11,28,22.60
2016,08,13,11,29,22.60
2016,08,13,11,30,22.50
2016,08,13,11,31,22.60
2016,08,13,11,32,22.60
2016,08,13,11,33,22.60
2016,08,13,11,34,22.60
2016,08,13,11,35,22.70
2016,08,13,11,36,22.70
2016,08,13,11,37,22.70
2016,08,13,11,38,22.60
2016,08,13,11,39,22.60
2016,08,13,11,40,22.70
2016,08,13,11,41,22.70
2016,08,13,11,42,22.70
2016,08,13,11,43,22.70
2016,08,13,11,44,22.70
2016,08,13,11,45,22.70
2016,08,13,11,46,22.70
2016,08,13,11,47,22.70
2016,08,13,11,48,22.70
2016,08,13,11,49,22.70
2016,08,13,11,50,22.70
2016,08,13,11,51,22.70
2016,08,13,11,52,22.70
2016,08,13,11,53,22.80
2016,08,13,11,54,22.80
2016,08,13,11,55,22.90
2016,08,13,11,56,22.90
2016,08,13,11,57,22.90
2016,08,13,11,58,22.90
2016,08,13,11,59,22.90
2016,08,13,12,00,22.90
2016,08,13,12,01,22.90
2016,08,13,12,02,23.00
2016,08,13,12,03,23.10
2016,08,13,12,04,23.20
2016,08,13,12,05,23.20
2016,08,13,12,06,23.30
2016,08,13,12,07,23.40
2016,08,13,12,08,23.50
2016,08,13,12,09,23.60
2016,08,13,12,10,23.70
2016,08,13,12,11,23.80
2016,08,13,12,12,23.80
2016,08,13,12,13,23.80
2016,08,13,12,14,23.80
2016,08,13,12,15,23.70
2016,08,13,12,16,23.60
2016,08,13,12,17,23.50
2016,08,13,12,18,23.40
2016,08,13,12,19,23.40
2016,08,13,12,20,23.40
2016,08,13,12,21,23.40
2016,08,13,12,22,23.40
2016,08,13,12,23,23.40
2016,08,13,12,24,23.40
2016,08,13,12,25,23.40
2016,08,13,12,26,23.40
2016,08,13,12,27,23.30
2016,08,13,12,28,23.30
2016,08,13,12,29,23.20
2016,08,13,12,30,23.20
2016,08,13,12,31,23.20
2016,08,13,12,32,23.10
2016,08,13,12,33,23.10
2016,08,13,12,34,23.10
2016,08,13,12,35,23.10
2016,08,13,12,36,23.10
2016,08,13,12,37,23.10
2016,08,13,12,38,23.10
2016,08,13,12,39,23.10
2016,08,13,12,40,23.20
2016,08,13,12,41,23.20
2016,08,13,12,42,23.20
2016,08,13,12,43,23.20
2016,08,13,12,44,23.20
2016,08,13,12,45,23.20
2016,08,13,12,46,23.20
2016,08,13,12,47,23.30
2016,08,13,12,48,23.30
2016,08,13,12,49,23.40
2016,08,13,12,50,23.40
2016,08,13,12,51,23.40
2016,08,13,12,52,23.40
2016,08,13,12,53,23.40
2016,08,13,12,54,23.50
2016,08,13,12,55,23.50
2016,08,13,12,56,23.50
2016,08,13,12,57,23.60
2016,08,13,12,58,23.60
2016,08,13,12,59,23.70
2016,08,13,13,00,23.70
2016,08,13,13,01,23.70
2016,08,13,13,02,23.70
2016,08,13,13,03,23.70
2016,08,13,13,04,23.70
2016,08,13,13,05,23.70
2016,08,13,13,06,23.70
2016,08,13,13,07,23.80
2016,08,13,13,08,23.80
2016,08,13,13,09,23.80
2016,08,13,13,10,23.90
2016,08,13,13,11,23.90
2016,08,13,13,12,23.90
2016,08,13,13,13,24.00
2016,08,13,13,14,24.00
2016,08,13,13,15,24.00
2016,08,13,13,16,23.90
2016,08,13,13,17,23.90
2016,08,13,13,18,23.90
2016,08,13,13,19,23.80
2016,08,13,13,20,23.80
2016,08,13,13,21,23.80
2016,08,13,13,22,23.80
2016,08,13,13,23,23.80
2016,08,13,13,24,23.90
2016,08,13,13,25,24.00
2016,08,13,13,26,24.10
2016,08,13,13,27,24.20
2016,08,13,13,28,24.20
2016,08,13,13,29,24.30
2016,08,13,13,30,24.40
2016,08,13,13,31,24.50
2016,08,13,13,32,24.50
2016,08,13,13,33,24.60
2016,08,13,13,34,24.60
2016,08,13,13,35,24.60
2016,08,13,13,36,24.70
2016,08,13,13,37,24.80
2016,08,13,13,38,24.90
2016,08,13,13,39,24.90
2016,08,13,13,40,25.00
2016,08,13,13,41,25.10
2016,08,13,13,42,25.10
2016,08,13,13,43,25.10
2016,08,13,13,44,25.10
2016,08,13,13,45,25.10
2016,08,13,13,46,25.00
2016,08,13,13,47,24.90
2016,08,13,13,48,24.90
2016,08,13,13,49,24.80
2016,08,13,13,50,24.80
2016,08,13,13,51,24.80
2016,08,13,13,52,24.80
2016,08,13,13,53,24.90
2016,08,13,13,54,24.90
2016,08,13,13,55,24.90
2016,08,13,13,56,24.90
2016,08,13,13,57,24.90
2016,08,13,13,58,24.90
2016,08,13,13,59,24.80
2016,08,13,14,00,24.80
2016,08,13,14,01,24.80
2016,08,13,14,02,24.80
2016,08,13,14,03,24.80
2016,08,13,14,04,24.80
2016,08,13,14,05,24.80
2016,08,13,14,06,24.80
2016,08,13,14,07,24.80
2016,08,13,14,08,24.80
2016,08,13,14,09,24.90
2016,08,13,14,10,24.90
2016,08,13,14,11,24.70
2016,08,13,14,12,24.60
2016,08,13,14,13,24.60
2016,08,13,14,14,24.60
2016,08,13,14,15,24.60
2016,08,13,14,16,24.60
2016,08,13,14,17,24.60
2016,08,13,14,18,24.60
2016,08,13,14,19,24.60
2016,08,13,14,20,24.60
2016,08,13,14,21,24.60
2016,08,13,14,22,24.70
2016,08,13,14,23,24.70
2016,08,13,14,24,24.80
2016,08,13,14,25,24.80
2016,08,13,14,26,24.80
2016,08,13,14,27,24.80
2016,08,13,14,28,24.70
2016,08,13,14,29,24.70
2016,08,13,14,30,24.60
2016,08,13,14,31,24.50
2016,08,13,14,32,24.40
2016,08,13,14,33,24.30
2016,08,13,14,34,24.20
2016,08,13,14,35,24.20
2016,08,13,14,36,24.30
2016,08,13,14,37,24.30
2016,08,13,14,38,24.30
2016,08,13,14,39,24.20
2016,08,13,14,40,24.30
2016,08,13,14,41,24.30
2016,08,13,14,42,24.50
2016,08,13,14,43,24.60
2016,08,13,14,44,24.70
2016,08,13,14,45,24.80
2016,08,13,14,46,24.90
2016,08,13,14,47,25.00
2016,08,13,14,48,25.10
2016,08,13,14,49,25.10
2016,08,13,14,50,25.20
2016,08,13,14,51,25.20
2016,08,13,14,52,25.20
2016,08,13,14,53,25.30
2016,08,13,14,54,25.30
2016,08,13,14,55,25.40
2016,08,13,14,56,25.50
2016,08,13,14,57,25.60
2016,08,13,14,58,25.50
2016,08,13,14,59,25.50
2016,08,13,15,00,25.50
2016,08,13,15,01,25.40
2016,08,13,15,02,25.30
2016,08,13,15,03,25.40
2016,08,13,15,04,25.40
2016,08,13,15,05,25.30
2016,08,13,15,06,25.20
2016,08,13,15,07,25.20
2016,08,13,15,08,25.10
2016,08,13,15,09,25.00
2016,08,13,15,10,24.90
2016,08,13,15,11,25.00
2016,08,13,15,12,25.00
2016,08,13,15,13,25.10
2016,08,13,15,14,25.20
2016,08,13,15,15,25.20
2016,08,13,15,16,25.20
2016,08,13,15,17,25.10
2016,08,13,15,18,25.00
2016,08,13,15,19,25.00
2016,08,13,15,20,25.10
2016,08,13,15,21,25.10
2016,08,13,15,22,25.10
2016,08,13,15,23,25.10
2016,08,13,15,24,25.10
2016,08,13,15,25,25.20
2016,08,13,15,26,25.20
2016,08,13,15,27,25.30
2016,08,13,15,28,25.40
2016,08,13,15,29,25.50
2016,08,13,15,30,25.60
2016,08,13,15,31,25.70
2016,08,13,15,32,25.70
2016,08,13,15,33,25.70
2016,08,13,15,34,25.70
2016,08,13,15,35,25.70
2016,08,13,15,36,25.70
2016,08,13,15,37,25.70
2016,08,13,15,38,25.80
2016,08,13,15,39,25.80
2016,08,13,15,40,25.80
2016,08,13,15,41,25.70
2016,08,13,15,42,25.70
2016,08,13,15,43,25.60
2016,08,13,15,44,25.60
2016,08,13,15,45,25.60
2016,08,13,15,46,25.60
2016,08,13,15,47,25.70
2016,08,13,15,48,25.70
2016,08,13,15,49,25.70
2016,08,13,15,50,25.70
2016,08,13,15,51,25.70
2016,08,13,15,52,25.60
2016,08,13,15,53,25.40
2016,08,13,15,54,25.30
2016,08,13,15,55,25.30
2016,08,13,15,56,25.40
2016,08,13,15,57,25.50
2016,08,13,15,58,25.60
2016,08,13,15,59,25.70
2016,08,13,16,00,25.70
2016,08,13,16,01,25.60
2016,08,13,16,02,25.60
2016,08,13,16,03,25.50
2016,08,13,16,04,25.50
2016,08,13,16,05,25.60
2016,08,13,16,06,25.60
2016,08,13,16,07,25.70
2016,08,13,16,08,25.80
2016,08,13,16,09,25.90
2016,08,13,16,10,25.90
2016,08,13,16,11,26.00
2016,08,13,16,12,26.10
2016,08,13,16,13,26.20
2016,08,13,16,14,26.30
2016,08,13,16,15,26.30
2016,08,13,16,16,26.30
2016,08,13,16,17,26.30
2016,08,13,16,18,26.30
2016,08,13,16,19,26.30
2016,08,13,16,20,26.30
2016,08,13,16,21,26.30
2016,08,13,16,22,26.30
2016,08,13,16,23,26.30
2016,08,13,16,24,26.30
2016,08,13,16,25,26.40
2016,08,13,16,26,26.50
2016,08,13,16,27,26.60
2016,08,13,16,28,26.70
2016,08,13,16,29,26.70
2016,08,13,16,30,26.80
2016,08,13,16,31,26.80
2016,08,13,16,32,26.80
2016,08,13,16,33,26.90
2016,08,13,16,34,27.00
2016,08,13,16,35,27.30
2016,08,13,16,36,27.50
2016,08,13,16,37,27.70
2016,08,13,16,38,27.90
2016,08,13,16,39,28.10
2016,08,13,16,40,28.30
2016,08,13,16,41,28.50
2016,08,13,16,42,28.70
2016,08,13,16,43,28.80
2016,08,13,16,44,29.00
2016,08,13,16,45,29.10
2016,08,13,16,46,29.10
2016,08,13,16,47,29.10
2016,08,13,16,48,29.20
2016,08,13,16,49,29.30
2016,08,13,16,50,29.30
2016,08,13,16,51,29.40
2016,08,13,16,52,29.40
2016,08,13,16,53,29.40
2016,08,13,16,54,29.50
2016,08,13,16,55,29.50
2016,08,13,16,56,29.60
2016,08,13,16,57,29.60
2016,08,13,16,58,29.60
2016,08,13,16,59,29.60
2016,08,13,17,00,29.60
2016,08,13,17,01,29.60
2016,08,13,17,02,29.60
2016,08,13,17,03,29.60
2016,08,13,17,04,29.70
2016,08,13,17,05,29.80
2016,08,13,17,06,29.80
2016,08,13,17,07,29.70
2016,08,13,17,08,29.70
2016,08,13,17,09,29.80
2016,08,13,17,10,29.80
2016,08,13,17,11,29.90
2016,08,13,17,12,29.90
2016,08,13,17,13,30.00
2016,08,13,17,14,30.00
2016,08,13,17,15,30.00
2016,08,13,17,16,30.00
2016,08,13,17,17,30.00
2016,08,13,17,18,30.00
2016,08,13,17,19,30.00